Location: Little Elm
(33.1626°N, 96.9375°W)
Time: 19:16:58
(UTC+00:00)

Envisat - Pass Details

Date: 20 May 2022
Orbit: 764 x 765 km, 98.2° (Epoch: 25 June)

Event Time Altitude Azimuth Distance (km) Brightness Sun altitude
Rises 10:16:00 0° 25° (NNE) 3,233 7.4 -13.3°
Reaches altitude 10° 10:18:35 10° 36° (NE) 2,303 6.7 -12.9°
Maximum altitude 10:23:00 30° 97° (E) 1,353 4.8 -12.1°
Drops below altitude 10° 10:27:23 10° 157° (SSE) 2,290 5.4 -11.3°
Sets 10:29:57 0° 168° (SSE) 3,212 6.0 -10.9°
